Location: Lango�lan
(48.1202°N, 3.2340°W)
Time: 07:19:31
(UTC+00:00)

Cosmos 1943 Rocket - Pass Details

Date: 23 October 2019
Orbit: 810 x 845 km, 71.0° (Epoch: 14 November)

Event Time Altitude Azimuth Distance (km) Brightness Sun altitude
Rises 06:08:00 0° 326° (NNW) 3,412 4.9 -6.6°
Reaches altitude 10° 06:10:35 10° 319° (NW) 2,475 4.2 -6.2°
Maximum altitude 06:15:48 39° 253° (WSW) 1,253 2.7 -5.4°
Drops below altitude 10° 06:21:00 10° 186° (S) 2,459 4.7 -4.5°
Sets 06:23:34 0° 179° (S) 3,387 5.5 -4.1°
